Aeroporto :
LOGIN :

Iscrizione | Disclaimer

   EN    FR    IT 

 










Sommario :    VFR   VFR Marginale   IFR   IFR Intensivo   IFR Molto Intensivo
Visibilità : 
Base nubi : 
>= 8 km
>= 3000ft
5 / 8 km
1000 / 3000 ft
1500m / 5 km
500 / 1000 ft
800 / 1500m
200 / 500 ft
< 800m
< 200 ft
Simboli :   Temporali  Nebbia  Neve Forte  Precipitazioni Forti  Vento > 20 kt
SIGMETs :   Varie  Temporali  Ghiacco  Turbolenza  Onda orograficha  Ceneri Vulcaniche







- Altitudine del aeroporto : 885 ft
- Codice IATA : BAS
- Carte del aeroporto


LFSB - Bale-Mulhouse

ULTIMO METAR :
  • 171330Z 31004KT 240V040 9999 FEW043 26/15 Q1017 NOSIG

METARs OBSOLETI :
  • 171300Z 31005KT 220V030 9999 FEW043 26/15 Q1017 NOSIG
  • 171230Z 02004KT 310V070 9999 FEW043 25/14 Q1018 NOSIG
  • 171200Z VRB04KT 9999 FEW040 25/16 Q1018 NOSIG
  • 171130Z VRB04KT 9999 FEW040 24/14 Q1018 NOSIG
  • 171100Z 34005KT 300V050 9999 FEW040 23/14 Q1018 NOSIG
  • 171030Z 32005KT 270V030 9999 FEW036 23/14 Q1019 NOSIG

TAF TAF LFSB
Valido dal 17 a 12 ore il 18 a 12 ore UTC


171100Z 1712/1812 36008KT 9999 FEW040
BECMG 1718/1721 VRB03KT
PROB30
TEMPO 1802/1805 4000 MIFG
Met : +33 3 89 90 31 11
Nessun NOTAM noto per questo aeroporto.



MetMap, La meteo Aeronautica in un colpo d'occhio ! - Copyright ORBIFLY Dicembre 2007 - Disclaimer

ORBIFLY MET'MAP TEAM :

Programmazione e sviluppo : Alexandra Zaïnal
Concezione e sviluppo : Baudouin d'Aumeries
Co-Programmazione e sviluppo : Marc-Olivier Méhu
Supporto tecnico e logistico : Manuel Goepfert
Aiuto per la traduzione : Arnaldo La Scala

Contatto : metmap@orbifly.com




FONTI E CREDITI :

   NOAA